Terug naar catalogus

GO-32

TECHSAT 1B

ActiefAmateurradioSSO
NORAD 25397·PAYLOAD·🇮🇱 Israel

Gelanceerd Jul 10, 1998 vanaf Baikonur Cosmodrome

Loading…

Volgende Passages (komende 24 uur)

TLE

VersSource: Space-Track

Epoch: Sep 14, 2026, 09:54 UTC

1 25397U 98043D   26257.41299807  .00000025  00000-0  30886-4 0  9998
2 25397  99.0152 252.4556 0001057  13.7115 346.4091 14.24442711464038

Volg GO-32 in realtime met AllMySat

Download on the App Store